Location: Снежногорск
(68.0000°N, 88.0000°E)
Time: 22:36:27
(UTC+07:00)

Envisat - Visible Passes

Search period start: 05 October 2022 00:00
Search period end: 15 October 2022 00:00
Orbit: 764 x 765 km, 98.2° (Epoch: 04 October)

Date Brightness Start Highest point End Pass type
(mag) Time Alt. Az. Time Alt. Az. Time Alt. Az.
05 Oct 5.0 04:39:11 10° NNE 04:43:35 28° E 04:47:58 10° SSE visible
05 Oct 3.2 06:18:10 10° NNE 06:23:19 83° ESE 06:28:26 10° SSW visible
06 Oct 5.6 04:02:28 10° NE 04:06:05 19° E 04:09:41 10° SE visible
06 Oct 3.8 05:41:11 10° NNE 05:46:13 56° ESE 05:51:13 10° S visible
07 Oct 5.9 03:26:11 10° NE 03:28:25 13° ENE 03:30:39 10° E visible
07 Oct 4.5 05:04:14 10° NNE 05:08:57 37° E 05:13:41 10° SSE visible
07 Oct 3.0 06:43:19 10° NNE 06:48:26 77° WNW 06:53:32 10° SSW visible
08 Oct 5.2 04:27:22 10° NNE 04:31:34 25° E 04:35:45 10° SE visible
08 Oct 3.3 06:06:18 10° NNE 06:11:26 73° ESE 06:16:31 10° SSW visible
09 Oct 5.7 03:50:44 10° NE 03:54:01 17° ENE 03:57:17 10° ESE visible
09 Oct 4.0 05:29:18 10° NNE 05:34:16 49° E 05:39:13 10° S visible
10 Oct 6.0 03:14:50 10° NE 03:16:18 11° ENE 03:17:46 10° E visible
10 Oct 4.8 04:52:22 10° NNE 04:56:58 33° E 05:01:33 10° SSE visible
10 Oct 3.0 06:31:26 10° NNE 06:36:34 86° WNW 06:41:40 10° SSW visible
11 Oct 5.4 04:15:34 10° NNE 04:19:32 22° E 04:23:28 10° SE visible
11 Oct 3.5 05:54:24 10° NNE 05:59:30 65° ESE 06:04:34 10° S visible
11 Oct 6.5 19:08:59 10° WNW 19:09:17 10° WNW 19:09:35 10° WNW visible
12 Oct 5.8 03:39:03 10° NE 03:41:56 15° ENE 03:44:47 10° ESE visible
12 Oct 4.2 05:17:26 10° NNE 05:22:18 43° E 05:27:09 10° S visible
12 Oct 3.0 06:56:34 10° NNE 07:01:39 68° WNW 07:06:42 10° SW visible
13 Oct 5.0 04:40:32 10° NNE 04:44:58 29° E 04:49:23 10° SSE visible
13 Oct 3.1 06:19:32 10° NNE 06:24:41 84° ESE 06:29:47 10° SSW visible
14 Oct 5.6 04:03:47 10° NE 04:07:28 20° E 04:11:08 10° SE visible
14 Oct 3.7 05:42:31 10° NNE 05:47:34 57° ESE 05:52:35 10° S visible
14 Oct 6.2 18:55:24 10° W 18:57:09 12° WNW 18:58:54 10° NW visible
